Track IRIDIUM 121 now! 10-day predictions IRIDIUM 121 is classified as:
1 42812U 17039K 21101.13846839 .00000069 00000-0 17532-4 0 9991 2 42812 86.3966 64.7400 0002362 89.8592 270.2874 14.34218964198619